When you browse on this site, cookies collect data to enhance your experience and personalize the content and advertising you see.
Visit our Privacy Policy to learn more. By continuing to use the site, you agree to this use of cookies and data.
  • în România
  • Lista ţărilor
  • Pe 7 zile
  • Temperatura apei
  • Meteo pe hartă
  • Widget-uri
  • user-avatar
    Intrare

    Meteo pe oră la Inverclyde

    Astăzi, 18 Octombrie, Vineri

    Timp Temperatura Precipitaţii Vânt Presiune Umiditate
    00:00 +8°C° 0 mm 1 m/s 745 mmHg 93%
    01:00 +8°C° 0.2 mm 1 m/s 745 mmHg 94%
    02:00 +8°C° 0.2 mm 1 m/s 745 mmHg 94%
    03:00 +8°C° 0.2 mm 1 m/s 744 mmHg 95%
    04:00 +8°C° 0.1 mm 1 m/s 744 mmHg 95%
    05:00 +8°C° 0.1 mm 1 m/s 744 mmHg 96%
    06:00 +8°C° 0 mm 1 m/s 744 mmHg 97%
    07:00 +8°C° 0 mm 1 m/s 744 mmHg 95%
    08:00 +8°C° 0 mm 0 m/s 744 mmHg 93%
    09:00 +9°C° 0 mm 0 m/s 744 mmHg 92%
    10:00 +10°C° 0 mm 1 m/s 744 mmHg 89%
    11:00 +11°C° 0 mm 1 m/s 744 mmHg 85%
    12:00 +12°C° 0 mm 1 m/s 744 mmHg 82%
    13:00 +12°C° 0.2 mm 1 m/s 744 mmHg 84%
    14:00 +12°C° 0.2 mm 2 m/s 744 mmHg 86%
    15:00 +10°C° 0.2 mm 2 m/s 744 mmHg 88%
    16:00 +10°C° 0.5 mm 2 m/s 744 mmHg 90%
    17:00 +10°C° 0.5 mm 2 m/s 745 mmHg 93%
    18:00 +9°C° 0.5 mm 2 m/s 745 mmHg 96%
    19:00 +9°C° 0.5 mm 3 m/s 745 mmHg 96%
    20:00 +9°C° 0.5 mm 3 m/s 745 mmHg 96%
    21:00 +9°C° 0.5 mm 3 m/s 745 mmHg 96%
    22:00 +9°C° 0.3 mm 3 m/s 746 mmHg 96%
    23:00 +8°C° 0.3 mm 4 m/s 746 mmHg 95%

    Mâine, 19 Octombrie, Sâmbătă

    Timp Temperatura Precipitaţii Vânt Presiune Umiditate
    00:00 +10°C° 0.3 mm 4 m/s 746 mmHg 95%
    01:00 +8°C° 0.3 mm 4 m/s 746 mmHg 95%
    02:00 +8°C° 0.3 mm 4 m/s 747 mmHg 95%
    03:00 +8°C° 0.3 mm 4 m/s 747 mmHg 94%
    04:00 +8°C° 0.2 mm 4 m/s 747 mmHg 94%
    05:00 +8°C° 0.2 mm 4 m/s 748 mmHg 94%
    06:00 +8°C° 0.2 mm 4 m/s 748 mmHg 93%
    07:00 +8°C° 0.1 mm 3 m/s 748 mmHg 93%
    08:00 +8°C° 0.1 mm 3 m/s 749 mmHg 92%
    09:00 +8°C° 0.1 mm 3 m/s 749 mmHg 91%
    10:00 +9°C° 0.1 mm 3 m/s 749 mmHg 88%
    11:00 +9°C° 0.1 mm 3 m/s 750 mmHg 85%
    12:00 +10°C° 0.1 mm 4 m/s 750 mmHg 81%
    13:00 +10°C° 0.1 mm 4 m/s 750 mmHg 81%
    14:00 +10°C° 0.1 mm 4 m/s 751 mmHg 80%
    15:00 +10°C° 0.1 mm 4 m/s 751 mmHg 80%
    16:00 +9°C° 0.2 mm 3 m/s 752 mmHg 84%
    17:00 +8°C° 0.2 mm 3 m/s 752 mmHg 88%
    18:00 +7°C° 0.2 mm 3 m/s 753 mmHg 92%
    19:00 +7°C° 0.2 mm 3 m/s 754 mmHg 92%
    20:00 +7°C° 0.2 mm 3 m/s 754 mmHg 92%
    21:00 +7°C° 0.2 mm 3 m/s 755 mmHg 91%
    22:00 +7°C° 0.2 mm 3 m/s 756 mmHg 91%
    23:00 +5°C° 0.2 mm 3 m/s 756 mmHg 90%

    Poimâine, 20 Octombrie, Duminică

    Timp Temperatura Precipitaţii Vânt Presiune Umiditate
    00:00 +5°C° 0.2 mm 4 m/s 756 mmHg 90%
    01:00 +5°C° 0.1 mm 4 m/s 757 mmHg 89%
    02:00 +5°C° 0.1 mm 4 m/s 757 mmHg 88%
    03:00 +5°C° 0.1 mm 4 m/s 757 mmHg 87%
    04:00 +5°C° 0.1 mm 4 m/s 758 mmHg 87%
    05:00 +4°C° 0.1 mm 4 m/s 758 mmHg 87%
    06:00 +4°C° 0.1 mm 4 m/s 759 mmHg 87%
    07:00 +4°C° 0 mm 4 m/s 759 mmHg 86%
    08:00 +5°C° 0 mm 4 m/s 759 mmHg 85%
    09:00 +5°C° 0 mm 5 m/s 760 mmHg 84%
    10:00 +5°C° 0 mm 5 m/s 760 mmHg 81%
    11:00 +6°C° 0 mm 5 m/s 761 mmHg 79%
    12:00 +6°C° 0 mm 5 m/s 761 mmHg 76%
    13:00 +6°C° 0 mm 5 m/s 762 mmHg 75%
    14:00 +6°C° 0 mm 4 m/s 762 mmHg 75%
    15:00 +6°C° 0 mm 4 m/s 762 mmHg 74%
    16:00 +5°C° 0 mm 4 m/s 763 mmHg 75%
    17:00 +5°C° 0 mm 3 m/s 763 mmHg 76%
    18:00 +5°C° 0 mm 3 m/s 764 mmHg 77%
    19:00 +5°C° 0 mm 2 m/s 764 mmHg 77%
    20:00 +5°C° 0 mm 2 m/s 764 mmHg 78%
    21:00 +5°C° 0 mm 2 m/s 765 mmHg 78%
    22:00 +5°C° 0 mm 2 m/s 765 mmHg 77%
    23:00 +5°C° 0 mm 2 m/s 765 mmHg 77%

    21 Octombrie, Luni

    Timp Temperatura Precipitaţii Vânt Presiune Umiditate
    00:00 +6°C° 0 mm 1 m/s 765 mmHg 76%
    01:00 +5°C° 0 mm 1 m/s 765 mmHg 77%
    02:00 +5°C° 0 mm 1 m/s 765 mmHg 77%
    03:00 +5°C° 0 mm 1 m/s 765 mmHg 78%
    04:00 +4°C° 0 mm 1 m/s 765 mmHg 80%
    05:00 +4°C° 0 mm 1 m/s 765 mmHg 82%
    06:00 +2°C° 0 mm 2 m/s 765 mmHg 83%
    07:00 +3°C° 0 mm 2 m/s 765 mmHg 80%
    08:00 +4°C° 0 mm 2 m/s 765 mmHg 77%
    09:00 +5°C° 0 mm 2 m/s 765 mmHg 75%
    10:00 +6°C° 0 mm 2 m/s 765 mmHg 72%
    11:00 +7°C° 0 mm 3 m/s 765 mmHg 70%
    12:00 +9°C° 0 mm 3 m/s 765 mmHg 68%
    13:00 +8°C° 0 mm 3 m/s 765 mmHg 70%
    14:00 +8°C° 0 mm 3 m/s 764 mmHg 72%
    15:00 +8°C° 0 mm 3 m/s 764 mmHg 74%
    16:00 +8°C° 0 mm 3 m/s 764 mmHg 78%
    17:00 +7°C° 0 mm 3 m/s 764 mmHg 81%
    18:00 +7°C° 0 mm 3 m/s 764 mmHg 85%
    19:00 +5°C° 0 mm 3 m/s 764 mmHg 85%
    20:00 +5°C° 0 mm 3 m/s 764 mmHg 86%
    21:00 +5°C° 0 mm 3 m/s 764 mmHg 87%
    22:00 +5°C° 0 mm 3 m/s 764 mmHg 87%
    23:00 +5°C° 0 mm 3 m/s 763 mmHg 88%

    22 Octombrie, Marţi

    Timp Temperatura Precipitaţii Vânt Presiune Umiditate
    00:00 +5°C° 0 mm 3 m/s 763 mmHg 89%
    01:00 +5°C° 0 mm 4 m/s 763 mmHg 88%
    02:00 +5°C° 0 mm 4 m/s 762 mmHg 87%
    03:00 +6°C° 0 mm 4 m/s 762 mmHg 86%
    04:00 +6°C° 0 mm 4 m/s 762 mmHg 86%
    05:00 +6°C° 0 mm 5 m/s 762 mmHg 85%
    06:00 +6°C° 0 mm 5 m/s 762 mmHg 84%
    07:00 +7°C° 0 mm 5 m/s 761 mmHg 83%
    08:00 +7°C° 0 mm 5 m/s 761 mmHg 81%
    09:00 +7°C° 0 mm 5 m/s 761 mmHg 80%
    10:00 +7°C° 0.1 mm 5 m/s 761 mmHg 80%
    11:00 +7°C° 0.1 mm 5 m/s 761 mmHg 79%
    12:00 +7°C° 0.1 mm 5 m/s 760 mmHg 78%
    13:00 +8°C° 0 mm 5 m/s 760 mmHg 78%
    14:00 +8°C° 0 mm 5 m/s 760 mmHg 78%
    15:00 +8°C° 0 mm 5 m/s 759 mmHg 78%
    16:00 +7°C° 0 mm 5 m/s 759 mmHg 79%
    17:00 +7°C° 0 mm 4 m/s 759 mmHg 80%
    18:00 +6°C° 0 mm 4 m/s 758 mmHg 82%
    19:00 +6°C° 0 mm 4 m/s 758 mmHg 82%
    20:00 +6°C° 0 mm 4 m/s 758 mmHg 82%
    21:00 +6°C° 0 mm 4 m/s 758 mmHg 82%
    22:00 +6°C° 0.1 mm 4 m/s 758 mmHg 84%
    23:00 +6°C° 0.1 mm 4 m/s 757 mmHg 85%

    23 Octombrie, Miercuri

    Timp Temperatura Precipitaţii Vânt Presiune Umiditate
    00:00 +7°C° 0.1 mm 3 m/s 757 mmHg 86%
    01:00 +7°C° 0 mm 3 m/s 757 mmHg 88%
    02:00 +7°C° 0 mm 3 m/s 756 mmHg 89%
    03:00 +5°C° 0 mm 3 m/s 756 mmHg 90%
    04:00 +7°C° 0 mm 3 m/s 755 mmHg 90%
    05:00 +7°C° 0 mm 3 m/s 755 mmHg 89%
    06:00 +7°C° 0 mm 3 m/s 755 mmHg 89%
    07:00 +7°C° 0.1 mm 3 m/s 754 mmHg 88%
    08:00 +8°C° 0.1 mm 3 m/s 754 mmHg 87%
    09:00 +8°C° 0.1 mm 3 m/s 754 mmHg 87%
    10:00 +8°C° 0 mm 4 m/s 753 mmHg 83%
    11:00 +8°C° 0 mm 4 m/s 753 mmHg 80%
    12:00 +9°C° 0 mm 5 m/s 752 mmHg 76%
    13:00 +10°C° 0 mm 4 m/s 752 mmHg 77%
    14:00 +10°C° 0 mm 4 m/s 751 mmHg 78%
    15:00 +10°C° 0 mm 4 m/s 751 mmHg 79%
    16:00 +10°C° 0 mm 3 m/s 750 mmHg 82%
    17:00 +9°C° 0 mm 3 m/s 750 mmHg 86%
    18:00 +9°C° 0 mm 3 m/s 749 mmHg 90%
    19:00 +9°C° 0.1 mm 3 m/s 749 mmHg 91%
    20:00 +9°C° 0.1 mm 2 m/s 749 mmHg 91%
    21:00 +9°C° 0.1 mm 2 m/s 749 mmHg 92%
    22:00 +9°C° 0.1 mm 2 m/s 749 mmHg 92%
    23:00 +10°C° 0.1 mm 2 m/s 749 mmHg 92%
    Arată mai mult